Weather History for Elmendorf AFB, AK

Change the Weather History Date:

Sunday, October 21, 2012

  Actual Average Record
Temperature  
Mean Temperature 26 °F -  
Max Temperature 34 °F 35 °F 55 °F (2002)
Min Temperature 18 °F 25 °F -2 °F (1996)
Degree Days  
Heating Degree Days 39    
Moisture  
Dew Point 10 °F    
Average Humidity 50    
Maximum Humidity 70    
Minimum Humidity 26    
Precipitation  
Precipitation 0.00 in - - ()
Sea Level Pressure  
Sea Level Pressure 30.31 in    
Wind  
Wind Speed 11 mph (East)    
Max Wind Speed 30 mph    
Max Gust Speed -    
Visibility 10 miles    
Events      
Averages and records for this station are not official NWS values.
T = Trace of Precipitation, MM = Missing Value Source: NWS Daily Summary

Daily Weather History Graph

Daily Weather History Graph

Search for Another Location

Airport:

Trip Planner

Search our weather history database for the weather conditions in past years. The results will help you decide how hot, cold, wet, or windy it might be!

Date:

Astronomy

Oct. 21, 2012 Rise Set
Actual Time 8:59 AM AKDT 6:26 PM AKDT
Civil Twilight 8:14 AM AKDT 7:11 PM AKDT
Nautical Twilight 7:23 AM AKDT 8:02 PM AKDT
Astronomical Twilight 6:33 AM AKDT 8:52 PM AKDT
Moon 3:59 PM AKDT (10/21) No Moon Set
Length of Visible Light 10h 57m
Length of Day
9h 27m
Waxing Crescent, 47% of the Moon is Illuminated
Oct 21
Waxing Crescent
Oct 21
First Quarter
Oct 29
Full
Nov 6
Last Quarter
Nov 13
New

Hourly Weather History & Observations

Time (AKDT) Temp. Windchill Dew Point Humidity Pressure Visibility Wind Dir Wind Speed Gust Speed Precip Events Conditions
12:55 AM 34.2 °F 20.6 °F 2.7 °F 26% 30.28 in 10.0 mi NNE 29.9 mph - N/A   Clear
1:55 AM 33.4 °F 23.1 °F 2.8 °F 27% 30.29 in 10.0 mi NNE 16.1 mph - N/A   Clear
2:55 AM 31.8 °F 23.9 °F 3.2 °F 30% 30.31 in 10.0 mi NNE 9.2 mph - N/A   Clear
3:55 AM 30.7 °F 27.3 °F 10.0 °F 42% 30.32 in 10.0 mi NNW 3.5 mph - N/A   Clear
4:55 AM 31.1 °F 21.9 °F 7.5 °F 37% 30.32 in 10.0 mi North 11.5 mph - N/A   Clear
5:55 AM 23.5 °F 16.4 °F 8.6 °F 53% 30.32 in 10.0 mi NE 5.8 mph - N/A   Clear
6:55 AM 22.5 °F 15.1 °F 7.7 °F 53% 30.32 in 10.0 mi Variable 5.8 mph - N/A   Clear
7:55 AM 20.5 °F - 8.1 °F 59% 30.33 in 10.0 mi Calm Calm - N/A   Clear
8:55 AM 18.5 °F 13.3 °F 9.3 °F 67% 30.34 in 10.0 mi NE 3.5 mph - N/A   Clear
9:55 AM 19.9 °F 14.9 °F 11.7 °F 70% 30.34 in 10.0 mi NE 3.5 mph - N/A   Clear
10:55 AM 23.4 °F - 11.8 °F 61% 30.34 in 10.0 mi Calm Calm - N/A   Clear
11:55 AM 27.9 °F 22.6 °F 12.9 °F 54% 30.34 in 10.0 mi SSW 4.6 mph - N/A   Clear
12:55 PM 30.2 °F 26.7 °F 10.4 °F 44% 30.34 in 10.0 mi SW 3.5 mph - N/A   Clear
1:55 PM 31.3 °F - 14.5 °F 50% 30.33 in 10.0 mi Calm Calm - N/A   Clear
2:55 PM 32.4 °F 27.9 °F 14.4 °F 48% 30.31 in 10.0 mi SSW 4.6 mph - N/A   Clear
3:55 PM 32.9 °F 25.9 °F 12.2 °F 42% 30.30 in 10.0 mi South 8.1 mph - N/A   Clear
4:55 PM 32.4 °F 26.0 °F 12.0 °F 43% 30.30 in 10.0 mi South 6.9 mph - N/A   Clear
5:55 PM 30.9 °F 25.2 °F 11.7 °F 45% 30.29 in 10.0 mi South 5.8 mph - N/A   Clear
6:55 PM 28.0 °F 24.2 °F 10.8 °F 48% 30.28 in 10.0 mi South 3.5 mph - N/A   Clear
7:55 PM 23.5 °F 17.6 °F 11.8 °F 61% 30.29 in 10.0 mi SE 4.6 mph - N/A   Clear
8:55 PM 23.2 °F - 12.2 °F 63% 30.29 in 10.0 mi Calm Calm - N/A   Clear
9:55 PM 21.6 °F 15.3 °F 10.8 °F 63% 30.29 in 10.0 mi SSE 4.6 mph - N/A   Clear
10:55 PM 22.3 °F 16.1 °F 9.7 °F 58% 30.29 in 10.0 mi NE 4.6 mph - N/A   Clear
11:55 PM 21.2 °F 11.7 °F 9.9 °F 62% 30.29 in 10.0 mi NE 8.1 mph - N/A   Clear